DW2489 Weather Reports


Display with metric or nautical units.
time (UTC)temp
F
wind
direction
speed
MPH
gust
MPH
rain 1hr
in
rain 24hr
in
rain mn
in
humidity
%
barometer
mb
20260509160518 46 14 0.0 2.0 0.05 0.22 0.22 1011.2
20260509160016 46 14 0.0 3.0 0.06 0.22 0.22 1011.5
20260509155413 46 14 0.0 0.0 0.06 0.21 0.21 1011.5
20260509154840 45 14 0.0 0.0 0.06 0.20 0.20 1011.9
20260509154339 45 15 0.0 0.0 0.06 0.20 0.20 1011.9
20260509153838 45 14 0.0 0.0 0.07 0.20 0.20 1011.9
20260509153337 45 14 0.0 0.0 0.07 0.19 0.19 1011.9
20260509152803 45 14 0.0 4.0 0.08 0.19 0.19 1011.9
20260509152300 45 15 0.0 4.0 0.09 0.19 0.19 1011.9
20260509151758 45 14 2.0 4.0 0.08 0.18 0.18 1011.9
20260509151257 45 14 0.0 2.0 0.09 0.18 0.18 1011.9
20260509150756 45 14 0.0 0.0 0.10 0.18 0.18 1011.9
20260509150222 45 17 0.0 0.0 0.09 0.17 0.17 1011.9
20260509145721 45 333 0.0 0.0 0.09 0.16 0.16 1011.9
20260509145220 45 333 0.0 0.0 0.08 0.15 0.15 1011.9
20260509144719 45 333 0.0 0.0 0.08 0.14 0.14 1011.9
20260509144218 45 333 0.0 0.0 0.07 0.13 0.13 1011.9
20260509143717 45 333 0.0 0.0 0.07 0.13 0.13 1011.9
20260509143214 45 333 0.0 0.0 0.06 0.12 0.12 1011.9
20260509142713 45 333 0.0 0.0 0.06 0.11 0.11 1011.9
20260509142210 45 333 0.0 0.0 0.05 0.10 0.10 1011.9
20260509141709 45 333 0.0 2.0 0.06 0.10 0.10 1011.9
20260509141206 45 333 0.0 3.0 0.05 0.09 0.09 1011.9
20260509140633 45 333 0.0 3.0 0.04 0.08 0.08 1011.9
20260509140132 45 333 0.0 3.0 0.05 0.08 0.08 1011.9
20260509135631 45 333 1.0 3.0 0.04 0.07 0.07 1011.9
20260509135130 45 333 0.0 3.0 0.05 0.07 0.07 1011.9
20260509134627 44 333 0.0 3.0 0.04 0.06 0.06 1011.9
20260509134126 44 333 0.0 0.0 0.04 0.06 0.06 1011.9
20260509133553 44 333 0.0 0.0 0.05 0.06 0.06 1011.9
20260509133052 44 333 0.0 0.0 0.05 0.06 0.06 1011.9
20260509132551 44 333 0.0 0.0 0.04 0.05 0.05 1011.9
20260509132049 44 333 0.0 0.0 0.04 0.05 0.05 1011.9
20260509131516 44 333 0.0 0.0 0.04 0.04 0.04 1011.9
20260509130944 44 333 0.0 0.0 0.04 0.04 0.04 1011.9
20260509130443 44 333 0.0 0.0 0.04 0.04 0.04 1011.9
20260509125942 44 337 0.0 2.0 0.03 0.03 0.03 1011.9
20260509125440 44 355 0.0 3.0 0.02 0.02 0.02 1011.9
20260509124940 44 355 0.0 3.0 0.02 0.02 0.02 1011.9
20260509124407 44 355 0.0 2.0 0.02 0.02 0.02 1011.9
20260509123906 44 355 0.0 0.0 0.01 0.01 0.01 1011.9
20260509123404 44 355 0.0 0.0 0.01 0.01 0.01 1012.2
20260509122903 44 355 0.0 0.0 0.01 0.01 0.01 1012.2
20260509122402 44 355 0.0 0.0 0.01 0.01 0.01 1012.2
20260509121901 44 355 0.0 0.0 0.01 0.01 0.01 1012.2
20260509121400 44 355 0.0 0.0 0.00 0.00 0.00 1012.2
20260509120859 44 355 0.0 0.0 0.00 0.00 0.00 1012.2
20260509120356 44 355 0.0 0.0 0.00 0.00 0.00 1012.2
20260509115854 43 355 0.0 0.0 0.00 0.00 0.00 1012.2
20260509115352 43 355 0.0 0.0 0.00 0.00 0.00 1012.5
20260509114850 43 355 0.0 0.0 0.00 0.00 0.00 1012.5
20260509114349 43 355 0.0 2.0 0.00 0.00 0.00 1012.2
20260509113848 43 350 0.0 2.0 0.00 0.00 0.00 1012.2
20260509113315 43 341 0.0 2.0 0.00 0.00 0.00 1012.2
20260509112813 42 342 0.0 0.0 0.00 0.00 0.00 1012.2
20260509112312 42 342 0.0 0.0 0.00 0.00 0.00 1012.2
20260509111810 41 342 0.0 0.0 0.00 0.00 0.00 1012.2
20260509111238 41 342 0.0 0.0 0.00 0.00 0.00 1012.2
20260509110737 41 342 0.0 0.0 0.00 0.00 0.00 1012.2
20260509110235 40 342 0.0 2.0 0.00 0.00 0.00 1012.2
20260509105734 40 342 0.0 2.0 0.00 0.00 0.00 1012.2
20260509105233 39 342 1.0 2.0 0.00 0.00 0.00 1012.2
20260509104731 39 342 0.0 2.0 0.00 0.00 0.00 1011.9
20260509104229 38 332 0.0 2.0 0.00 0.00 0.00 1012.2
20260509103728 38 251 0.0 0.0 0.00 0.00 0.00 1011.9
20260509103227 38 251 0.0 0.0 0.00 0.00 0.00 1011.9
20260509102726 37 251 0.0 0.0 0.00 0.00 0.00 1012.2
20260509102225 37 251 0.0 0.0 0.00 0.00 0.00 1012.2
20260509101650 37 251 0.0 0.0 0.00 0.00 0.00 1012.2
20260509101118 37 251 0.0 0.0 0.00 0.00 0.00 1012.2
20260509100616 37 251 0.0 0.0 0.00 0.00 0.00 1012.2
20260509100044 37 251 0.0 0.0 0.00 0.00 0.00 1012.2
20260509095441 37 251 0.0 0.0 0.00 0.00 0.00 1012.2
20260509094909 37 251 0.0 0.0 0.00 0.00 0.00 1012.2
20260509094335 36 251 0.0 0.0 0.00 0.00 0.00 1012.2
20260509093834 36 249 0.0 0.0 0.00 0.00 0.00 1012.2
20260509093301 36 249 0.0 0.0 0.00 0.00 0.00 1012.2
20260509092800 36 249 0.0 0.0 0.00 0.00 0.00 1012.2
20260509092258 36 249 0.0 0.0 0.00 0.00 0.00 1012.5
20260509091756 36 249 0.0 0.0 0.00 0.00 0.00 1012.5
20260509091255 36 249 0.0 0.0 0.00 0.00 0.00 1012.5
20260509090754 35 249 0.0 0.0 0.00 0.00 0.00 1012.5
20260509090222 35 249 0.0 0.0 0.00 0.00 0.00 1012.5
20260509085720 35 249 0.0 0.0 0.00 0.00 0.00 1012.5
20260509085218 35 351 0.0 0.0 0.00 0.00 0.00 1012.5
20260509084716 35 353 0.0 0.0 0.00 0.00 0.00 1012.2
20260509084214 35 355 0.0 0.0 0.00 0.00 0.00 1012.2
20260509083610 35 355 0.0 0.0 0.00 0.00 0.00 1012.2
20260509083109 35 355 0.0 0.0 0.00 0.00 0.00 1012.2
20260509082608 35 355 0.0 0.0 0.00 0.00 0.00 1012.5
20260509082107 35 355 0.0 0.0 0.00 0.00 0.00 1012.2
20260509081605 35 355 0.0 0.0 0.00 0.00 0.00 1012.2
20260509081104 35 355 0.0 2.0 0.00 0.00 0.00 1012.2
20260509080603 35 355 0.0 2.0 0.00 0.00 0.00 1012.2
20260509080100 34 358 0.0 0.0 0.00 0.00 0.00 1011.9
20260509075559 34 281 0.0 0.0 0.00 0.00 0.00 1012.2
20260509075058 35 264 0.0 0.0 0.00 0.00 0.00 1012.2
20260509074557 35 264 0.0 0.0 0.00 0.00 0.00 1012.2
20260509074054 35 264 0.0 0.0 0.00 0.00 0.00 1011.9
20260509073553 35 264 0.0 0.0 0.00 0.00 0.00 1011.9
20260509072949 35 264 0.0 0.0 0.00 0.00 0.00 1011.9
20260509072448 36 264 0.0 0.0 0.00 0.00 0.00 1011.9
20260509071946 36 264 0.0 0.0 0.00 0.00 0.00 1011.9
20260509071444 36 264 0.0 0.0 0.00 0.00 0.00 1011.9
20260509070911 36 264 0.0 0.0 0.00 0.00 0.00 1011.9
20260509070339 36 272 0.0 0.0 0.00 0.00 0.00 1011.9
20260509065837 37 275 0.0 0.0 0.00 0.00 0.00 1011.9
20260509065336 37 318 0.0 0.0 0.00 0.00 0.00 1011.9
20260509064834 37 318 0.0 0.0 0.00 0.00 0.00 1011.9
20260509064332 37 318 0.0 0.0 0.00 0.00 0.00 1011.9
20260509063831 37 318 0.0 0.0 0.00 0.00 0.00 1011.9
20260509063330 37 318 0.0 0.0 0.00 0.00 0.00 1012.2
20260509062829 37 318 0.0 0.0 0.00 0.00 0.00 1012.2
20260509062328 37 318 0.0 0.0 0.00 0.00 0.00 1012.2
20260509061827 37 318 0.0 0.0 0.00 0.00 0.00 1012.2
20260509061326 38 318 0.0 0.0 0.00 0.00 0.00 1012.2
20260509060825 38 318 0.0 0.0 0.00 0.00 0.00 1012.2
20260509060323 38 305 0.0 0.0 0.00 0.00 0.00 1012.2
20260509055823 38 310 0.0 0.0 0.00 0.00 0.00 1012.2
20260509055321 38 310 0.0 0.0 0.00 0.00 0.00 1012.2
20260509054820 38 310 0.0 0.0 0.00 0.00 0.00 1012.2
20260509054318 38 310 0.0 0.0 0.00 0.00 0.00 1012.2
20260509053815 37 310 0.0 0.0 0.00 0.00 0.00 1012.5
20260509053313 37 310 0.0 0.0 0.00 0.00 0.00 1012.5
20260509052811 37 310 0.0 0.0 0.00 0.00 0.00 1012.5
20260509052309 37 310 0.0 0.0 0.00 0.00 0.00 1012.5
20260509051807 37 310 0.0 0.0 0.00 0.00 0.00 1012.5
20260509051235 37 310 0.0 0.0 0.00 0.00 0.00 1012.5
20260509050734 37 310 0.0 2.0 0.00 0.00 0.00 1012.5
20260509050233 37 292 0.0 2.0 0.00 0.00 0.00 1012.5
20260509045731 36 307 0.0 2.0 0.00 0.00 0.00 1012.5
20260509045230 36 307 0.0 0.0 0.00 0.00 0.00 1012.5
20260509044729 36 307 0.0 0.0 0.00 0.00 0.00 1012.5
20260509044226 36 307 0.0 0.0 0.00 0.00 0.00 1012.2
20260509043654 37 307 0.0 0.0 0.00 0.00 0.00 1012.5
20260509043153 37 307 0.0 0.0 0.00 0.00 0.00 1012.5
20260509042651 37 307 0.0 0.0 0.00 0.00 0.00 1012.2
20260509042150 37 307 0.0 0.0 0.00 0.00 0.00 1012.2
20260509041647 37 307 0.0 0.0 0.00 0.00 0.00 1012.2
20260509041146 37 307 0.0 0.0 0.00 0.00 0.00 1012.2
20260509040614 37 307 0.0 0.0 0.00 0.00 0.00 1012.2
20260509040112 38 307 0.0 0.0 0.00 0.00 0.00 1012.2
20260509035611 38 307 0.0 0.0 0.00 0.00 0.00 1012.2
20260509035109 38 242 0.0 0.0 0.00 0.00 0.00 1012.2
20260509034608 38 242 0.0 0.0 0.00 0.00 0.00 1011.9
20260509034107 38 242 0.0 0.0 0.00 0.00 0.00 1012.2
20260509033605 38 242 0.0 0.0 0.00 0.00 0.00 1012.2
20260509033103 39 242 0.0 0.0 0.00 0.00 0.00 1012.2
20260509032601 39 242 0.0 0.0 0.00 0.00 0.00 1012.2
20260509032100 39 242 0.0 0.0 0.00 0.00 0.00 1012.2
20260509031559 39 242 0.0 0.0 0.00 0.00 0.00 1012.2
20260509031058 39 242 0.0 0.0 0.00 0.00 0.00 1012.2
20260509030556 39 242 0.0 0.0 0.00 0.00 0.00 1012.2
20260509030055 39 242 0.0 0.0 0.00 0.00 0.00 1012.2
20260509025553 40 242 0.0 2.0 0.00 0.00 0.00 1012.2
20260509025051 40 239 0.0 2.0 0.00 0.00 0.00 1012.2
20260509024550 40 239 0.0 2.0 0.00 0.00 0.00 1012.2
20260509024049 40 239 0.0 0.0 0.00 0.00 0.00 1012.2
20260509023546 40 233 0.0 0.0 0.00 0.00 0.00 1012.2
20260509023045 41 233 0.0 0.0 0.00 0.00 0.00 1012.2
20260509022511 41 233 0.0 0.0 0.00 0.00 0.00 1012.2
20260509022010 41 233 0.0 0.0 0.00 0.00 0.00 1011.9
20260509021508 41 233 0.0 0.0 0.00 0.00 0.00 1011.9
20260509021007 41 233 0.0 0.0 0.00 0.00 0.00 1011.9
20260509020505 42 233 0.0 0.0 0.00 0.00 0.00 1011.9
20260509015830 42 233 0.0 0.0 0.00 0.00 0.00 1011.9
20260509015328 42 233 0.0 0.0 0.00 0.00 0.00 1011.9
20260509014756 42 233 0.0 0.0 0.00 0.00 0.00 1011.9
20260509014223 43 233 0.0 0.0 0.00 0.00 0.00 1011.5
20260509013618 43 233 0.0 0.0 0.00 0.00 0.00 1011.5
20260509013116 43 233 0.0 0.0 0.00 0.00 0.00 1011.5
20260509012615 43 233 0.0 0.0 0.00 0.00 0.00 1011.5
20260509012114 44 233 0.0 0.0 0.00 0.00 0.00 1011.5
20260509011613 44 233 0.0 0.0 0.00 0.00 0.00 1011.5
20260509011112 44 233 0.0 0.0 0.00 0.00 0.00 1011.2
20260509010610 45 233 0.0 0.0 0.00 0.00 0.00 1011.2
20260509010109 45 233 0.0 0.0 0.00 0.00 0.00 1011.2
20260509005607 45 233 0.0 0.0 0.00 0.00 0.00 1011.2
20260509005106 46 233 0.0 0.0 0.00 0.00 0.00 1010.8
20260509004605 46 233 0.0 0.0 0.00 0.00 0.00 1010.8
20260509004102 47 233 0.0 0.0 0.00 0.00 0.00 1010.8
20260509003601 47 233 0.0 0.0 0.00 0.00 0.00 1010.8
20260509003059 47 233 0.0 0.0 0.00 0.00 0.00 1010.5
20260509002558 48 233 0.0 0.0 0.00 0.00 0.00 1010.5
20260509002057 49 233 0.0 0.0 0.00 0.00 0.00 1010.5
20260509001556 49 233 0.0 0.0 0.00 0.00 0.00 1010.5
20260509001052 50 233 0.0 3.0 0.00 0.00 0.00 1010.5
20260509000551 50 233 0.0 3.0 0.00 0.00 0.00 1010.5
20260509000050 51 233 0.0 0.0 0.00 0.00 0.00 1010.5
20260508235549 52 233 0.0 0.0 0.00 0.00 0.00 1010.5
20260508235047 52 233 0.0 0.0 0.00 0.00 0.00 1010.5
20260508234546 52 233 0.0 3.0 0.00 0.00 0.00 1010.5
20260508234044 53 233 0.0 4.0 0.00 0.00 0.00 1010.5
20260508233543 53 233 1.0 4.0 0.00 0.00 0.00 1010.5
20260508233040 53 276 2.0 6.0 0.00 0.00 0.00 1010.5
20260508232538 53 279 1.0 6.0 0.00 0.00 0.00 1010.5
20260508232036 53 263 2.0 6.0 0.00 0.00 0.00 1010.2
20260508231535 54 264 2.0 6.0 0.00 0.00 0.00 1010.2
20260508231032 54 259 0.0 4.0 0.00 0.00 0.00 1010.2
20260508230531 54 259 0.0 4.0 0.00 0.00 0.00 1010.2
20260508230030 54 254 1.0 7.0 0.00 0.00 0.00 1010.2
20260508225529 54 272 2.0 7.0 0.00 0.00 0.00 1010.2
20260508225028 54 289 1.0 7.0 0.00 0.00 0.00 1010.2
20260508224525 54 272 1.0 7.0 0.00 0.00 0.00 1010.2
20260508224022 54 301 3.0 7.0 0.00 0.00 0.00 1010.2
20260508223521 54 249 3.0 7.0 0.00 0.00 0.00 1010.2
20260508223019 54 288 1.0 10.0 0.00 0.00 0.00 1010.2
20260508222517 54 289 2.0 12.0 0.00 0.00 0.00 1010.2
20260508222015 54 265 8.0 12.0 0.00 0.00 0.00 1010.2
20260508221515 54 261 4.0 7.0 0.00 0.00 0.00 1010.2
20260508221013 54 270 3.0 12.0 0.00 0.00 0.00 1010.2
20260508220440 54 268 3.0 12.0 0.00 0.00 0.00 1010.2
20260508215939 54 270 6.0 12.0 0.00 0.00 0.00 1010.2
20260508215406 54 249 3.0 9.0 0.00 0.00 0.00 1010.2
20260508214905 53 264 4.0 9.0 0.00 0.00 0.00 1010.2
20260508214404 53 271 5.0 9.0 0.00 0.00 0.00 1010.2
20260508213901 53 311 2.0 12.0 0.00 0.00 0.00 1010.2
20260508213359 53 278 2.0 12.0 0.00 0.00 0.00 1010.2
20260508212857 53 280 3.0 15.0 0.00 0.00 0.00 1010.2
20260508212356 53 267 3.0 15.0 0.00 0.00 0.00 1010.2
20260508211854 54 283 4.0 12.0 0.00 0.00 0.00 1010.2
20260508211352 54 287 1.0 12.0 0.00 0.00 0.00 1010.2
20260508210850 54 291 2.0 12.0 0.00 0.00 0.00 1010.2
20260508210347 54 254 4.0 9.0 0.00 0.00 0.00 1010.2
20260508205845 54 264 4.0 9.0 0.00 0.00 0.00 1010.2
20260508205344 53 284 4.0 10.0 0.00 0.00 0.00 1010.2
20260508204842 52 216 1.0 10.0 0.00 0.00 0.00 1009.8
20260508204310 52 249 4.0 10.0 0.00 0.00 0.00 1009.8
20260508203808 52 1 4.0 13.0 0.00 0.00 0.00 1010.2
20260508203306 52 327 2.0 13.0 0.00 0.00 0.00 1010.2
20260508202804 51 320 3.0 13.0 0.00 0.00 0.00 1010.2
20260508202306 51 279 3.0 10.0 0.00 0.00 0.00 1010.2
20260508201801 52 341 4.0 12.0 0.00 0.00 0.00 1010.2
20260508201229 52 5 3.0 18.0 0.00 0.00 0.00 1010.2
20260508200728 54 0 5.0 18.0 0.00 0.00 0.00 1010.2
20260508200227 55 334 3.0 13.0 0.00 0.00 0.00 1010.2
20260508195725 55 294 4.0 18.0 0.00 0.00 0.00 1009.8
20260508195222 55 257 4.0 18.0 0.00 0.00 0.00 1009.5
20260508194546 55 225 9.0 18.0 0.00 0.00 0.00 1009.5
20260508194045 56 230 4.0 16.0 0.00 0.00 0.00 1009.5
20260508193543 56 216 6.0 19.0 0.00 0.00 0.00 1009.5
20260508193042 56 262 9.0 19.0 0.00 0.00 0.00 1009.5
20260508192439 56 275 4.0 16.0 0.00 0.00 0.00 1009.5
20260508191938 55 266 9.0 16.0 0.00 0.00 0.00 1009.5
20260508191437 54 262 5.0 16.0 0.00 0.00 0.00 1009.5
20260508190936 54 288 6.0 16.0 0.00 0.00 0.00 1009.5
20260508190433 54 271 4.0 13.0 0.00 0.00 0.00 1009.5
20260508185932 55 279 3.0 15.0 0.00 0.00 0.00 1009.5
20260508185431 55 270 4.0 15.0 0.00 0.00 0.00 1009.8
20260508184929 55 265 8.0 15.0 0.00 0.00 0.00 1009.8
20260508184356 56 214 4.0 10.0 0.00 0.00 0.00 1009.8
20260508183854 56 225 4.0 12.0 0.00 0.00 0.00 1009.8
20260508183352 57 260 4.0 12.0 0.00 0.00 0.00 1009.8
20260508182818 57 235 6.0 15.0 0.00 0.00 0.00 1009.8
20260508182317 56 264 3.0 15.0 0.00 0.00 0.00 1009.8
20260508181713 57 275 7.0 15.0 0.00 0.00 0.00 1009.8
20260508181211 57 249 5.0 10.0 0.00 0.00 0.00 1009.8
20260508180703 57 280 6.0 12.0 0.00 0.00 0.00 1009.8
20260508180200 56 220 5.0 18.0 0.00 0.00 0.00 1009.8
20260508175657 56 272 7.0 18.0 0.00 0.00 0.00 1009.8
20260508175123 56 283 6.0 15.0 0.00 0.00 0.00 1010.2
20260508174622 56 261 4.0 16.0 0.00 0.00 0.00 1009.8
20260508174121 56 270 6.0 16.0 0.00 0.00 0.00 1010.2
20260508173620 56 243 7.0 20.0 0.00 0.00 0.00 1009.8
20260508173119 56 247 7.0 20.0 0.00 0.00 0.00 1010.2
20260508172617 56 241 7.0 15.0 0.00 0.00 0.00 1010.2
20260508172116 56 289 4.0 13.0 0.00 0.00 0.00 1010.2
20260508171615 56 221 6.0 19.0 0.00 0.00 0.00 1010.2
20260508171113 56 287 4.0 20.0 0.00 0.00 0.00 1010.2
20260508170612 57 286 10.0 20.0 0.00 0.00 0.00 1010.2
20260508170110 57 225 6.0 16.0 0.00 0.00 0.00 1009.8
20260508165609 57 271 6.0 16.0 0.00 0.00 0.00 1009.8
20260508165035 58 267 4.0 13.0 0.00 0.00 0.00 1010.2
20260508164534 58 271 8.0 13.0 0.00 0.00 0.00 1010.2
20260508164031 57 240 3.0 20.0 0.00 0.00 0.00 1010.2
20260508163458 57 236 4.0 20.0 0.00 0.00 0.00 1010.2
20260508162957 57 259 4.0 13.0 0.00 0.00 0.00 1010.2
20260508162456 56 249 5.0 19.0 0.00 0.00 0.00 1010.2
20260508161955 55 248 6.0 19.0 0.00 0.00 0.00 1010.2
20260508161423 55 268 8.0 19.0 0.00 0.00 0.00 1010.2
20260508160921 54 262 6.0 15.0 0.00 0.00 0.00 1010.2